Location: Cluj-Napoca
(46.7712°N, 23.6236°E)
Time: 04:25:51
(UTC+03:00)

ISS - Pass Details

Date: 03 July 2020
Orbit: 417 x 421 km, 51.6° (Epoch: 08 July)

Event Time Altitude Azimuth Distance (km) Brightness Sun altitude
Exits shadow 03:35:52 30° 185° (S) 780 -2.9 -14.7°
Maximum altitude 03:36:53 38° 144° (SE) 649 -3.0 -14.6°
Drops below altitude 10° 03:40:02 10° 75° (ENE) 1,497 -0.3 -14.3°
Sets 03:42:13 0° 67° (ENE) 2,364 1.0 -14.1°
